[[{"header":{"parameterUnit":"m.s-1","parameterCategory":1,"la1":30.2991,"la2":30.254,"lo1":-89.0895,"lo2":-89.0444,"dy":0.0017,"dx":0.0017,"nx":28,"ny":28,"refTime":"2024-07-30T03:00:00:Z","depth":0,"parameterNumber":2,"parameterNumberName":"U-component_of_WINDS"},"data":[0,0,0,0,0,0,0,0,0,0,0,0,0,0,0,0,0,0,0,0,0,0,0,0,0,0,0,0,0,0,0,0,0,0,0,0,0,0,0,0,0,0,0,0,0,0,0,0,0,0,0,0,0,0,0,0,0,0,2.742,2.7421,0,2.7478,2.7478,2.7479,2.7476,2.7475,2.7474,2.7473,2.7533,2.7535,2.7537,0,0,0,0,0,0,0,0,0,0,0,0,0,2.731,2.7312,2.742,2.7421,2.7421,2.7477,2.7478,2.7479,2.7476,2.7475,2.7474,2.7473,2.7532,2.7535,2.7537,0,0,0,0,0,0,0,0,0,0,0,0,0,2.7361,2.7312,2.742,2.7427,2.7428,2.7477,2.7478,2.7479,2.7476,2.7475,2.7474,2.7473,2.7531,2.7534,2.7538,2.7584,0,0,2.7549,2.755,0,0,0,0,0,0,0,0,2.7359,2.7365,2.7425,2.7426,2.7428,2.7468,2.7461,2.7515,2.7476,2.7458,2.7473,2.7472,2.7512,2.7517,2.7531,2.7587,2.759,2.7549,2.7551,2.7553,2.7554,0,0,0,0,0,0,0,2.7355,2.7363,2.7443,2.7426,2.7428,2.7428,2.7434,2.7471,2.7491,2.7459,2.7459,2.7466,2.7513,2.7527,2.7532,2.7591,2.7549,2.7552,2.7554,2.7556,2.7691,2.7692,0,0,0,0,0,0,2.735,2.736,2.7441,2.7445,2.7389,2.7431,2.7437,2.7456,2.7491,2.7495,2.7467,2.7466,2.7522,2.7528,2.7534,2.7593,2.7553,2.7556,2.7558,2.769,2.7691,2.7693,0,0,0,0,0,0,2.7347,2.7357,2.7439,2.7402,2.7413,2.7434,2.7455,2.7458,2.7473,2.7497,2.75,2.7478,2.7521,2.7529,2.7573,2.7595,2.7557,2.7561,2.7688,2.769,2.7692,2.7709,0,0,0,0,0,0,2.7344,2.7356,2.7373,2.7403,2.7415,2.7475,2.7457,2.746,2.7479,2.7478,2.7508,2.7512,2.7521,2.7567,2.7576,2.7599,2.7563,2.7686,2.7689,2.7691,2.7707,2.7712,2.7716,0,0,0,0,0,2.734,2.7375,2.7374,2.7384,2.7437,2.7477,2.7484,2.7493,2.7481,2.7499,2.7515,2.7511,2.7591,2.7572,2.7582,2.7606,2.7685,2.7688,2.7691,2.7705,2.7711,2.7716,0,0,0,0,0,0,2.7348,2.7379,2.7378,2.7424,2.7448,2.7476,2.7499,2.7499,2.7526,2.7524,2.7535,2.7542,2.7586,2.76,2.7578,2.7654,2.7636,2.7642,2.7643,2.7649,2.7653,2.7649,2.7566,0,0,0,0,0,2.7355,2.7384,2.741,2.7448,2.746,2.7478,2.7495,2.7501,2.7526,2.7536,2.7555,2.7579,2.761,2.763,2.766,2.7709,2.7716,2.773,2.7735,2.7739,2.7743,2.7773,2.778,2.7704,2.7704,2.7704,0,0,2.7369,2.739,2.7408,2.745,2.7469,2.75,2.7486,2.7519,2.7543,2.7541,2.7583,2.7598,2.7627,2.7674,2.7695,2.7687,2.7766,2.7743,2.7746,2.7748,2.7777,2.7784,2.779,2.7706,2.7706,2.7705,0,0,2.7412,2.743,2.7465,2.7484,2.7514,2.7526,2.7534,2.7563,2.7573,2.7616,2.7616,2.7644,2.7697,2.7718,2.7735,2.7789,2.7787,2.7798,2.7822,2.785,2.7856,2.7862,2.7882,2.7889,2.7802,2.7803,2.7803,0,2.7427,2.7473,2.7482,2.7516,2.7536,2.7536,2.7572,2.7591,2.7628,2.7642,2.7632,2.77,2.7719,2.7771,2.7785,2.7798,2.781,2.7794,2.7855,2.786,2.7865,2.7885,2.7893,2.7804,2.7804,2.7803,2.7803,0,2.749,2.7523,2.7547,2.7584,2.7606,2.7641,2.7656,2.7678,2.7682,2.7695,2.774,2.7763,2.7798,2.7811,2.7815,2.7865,2.786,2.7852,2.7835,2.7874,2.7892,2.79,2.7806,2.7805,2.7805,2.7804,0,0,2.7538,2.7581,2.759,2.7608,2.7641,2.7667,2.7702,2.7737,2.7756,2.7782,2.7813,2.7859,2.7853,2.7873,2.7879,2.7904,2.7947,2.7894,2.7895,2.7904,2.8006,2.8012,2.8021,2.7946,2.7948,2.7949,2.8004,0,2.7586,2.7648,2.7659,2.7714,2.7745,2.7747,2.7778,2.7803,2.7817,2.7846,2.7861,2.7894,2.7882,2.7895,2.7919,2.7937,2.7968,2.7933,2.7977,2.7978,2.797,2.803,2.8036,2.8087,2.8012,2.8013,2.8014,0,2.7649,2.7677,2.7736,2.7767,2.7781,2.7808,2.7842,2.787,2.7898,2.7907,2.793,2.7934,2.7973,2.7953,2.8007,2.7983,2.8002,2.8013,2.8016,2.8021,2.7999,2.8038,2.8104,2.8112,2.8025,2.8024,2.8023,0,2.768,2.7733,2.7775,2.779,2.7827,2.7847,2.7864,2.7891,2.7912,2.7942,2.7956,2.799,2.8008,2.8035,2.8049,2.8033,2.8103,2.8084,2.8112,2.8112,2.8126,2.8125,2.8197,2.8137,2.8137,2.8137,2.8137,0,2.7732,2.7768,2.779,2.7816,2.7857,2.787,2.791,2.7927,2.7951,2.7982,2.7985,2.8014,2.803,2.8061,2.8072,2.8116,2.8124,2.8133,2.8136,2.8133,2.8132,2.8146,2.8143,2.8139,2.8138,2.8138,2.8138,0,2.7773,2.7789,2.7836,2.7868,2.7877,2.7906,2.7933,2.796,2.7974,2.8012,2.8022,2.8045,2.8082,2.8099,2.8144,2.8152,2.8203,2.8202,2.8193,2.8194,2.8222,2.8219,2.8305,2.8318,2.8248,2.8249,2.825,0,2.7806,2.7834,2.7869,2.7889,2.7907,2.7939,2.7961,2.7975,2.7998,2.8034,2.8056,2.8094,2.8124,2.8184,2.8205,2.8241,2.8242,2.8269,2.8247,2.8244,2.8244,2.8242,2.8246,2.8274,2.8274,2.8275,2.8275,0,2.7862,2.7869,2.79,2.7935,2.7961,2.7989,2.8016,2.8033,2.8052,2.8077,2.8116,2.8139,2.8187,2.8225,2.8262,2.828,2.8282,2.8282,2.8291,2.8289,2.8283,2.8288,2.8205,2.828,2.828,2.8279,2.8279,2.8279,2.7901,2.7927,2.7956,2.7991,2.8014,2.804,2.8066,2.8085,2.8117,2.8156,2.8163,2.8204,2.8234,2.8285,2.8304,2.8337,2.8331,2.8343,2.8346,2.8349,2.8351,2.8277,2.8344,2.8344,2.8344,2.8344,2.8344,0,2.7959,2.7978,2.8011,2.8049,2.8077,2.8076,2.8107,2.8131,2.8167,2.8195,2.8226,2.8271,2.8308,2.8332,2.837,2.8393,2.8394,2.8402,2.8401,2.8406,2.8354,2.8344,2.84,2.84,2.84,2.84,2.84,2.84,2.7993,2.8037,2.8048,2.8104,2.8123,2.8163,2.8181,2.8206,2.8228,2.8279,2.831,2.8325,2.8353,2.8393,2.8428,2.8434,2.8448,2.8457,2.8463,2.8415,2.8409,2.8403,2.8393,2.8459,2.8459,2.8512,2.8512,2.8512]},{"header":{"parameterUnit":"m.s-1","parameterCategory":1,"la1":30.2991,"la2":30.254,"lo1":-89.0895,"lo2":-89.0444,"dy":0.0017,"dx":0.0017,"nx":28,"ny":28,"refTime":"2024-07-30T03:00:00:Z","depth":0,"parameterNumber":3,"parameterNumberName":"V-component_of_WINDS"},"data":[0,0,0,0,0,0,0,0,0,0,0,0,0,0,0,0,0,0,0,0,0,0,0,0,0,0,0,0,0,0,0,0,0,0,0,0,0,0,0,0,0,0,0,0,0,0,0,0,0,0,0,0,0,0,0,0,0,0,-2.199,-2.199,0,-2.2041,-2.2042,-2.2042,-2.205,-2.205,-2.2049,-2.2049,-2.2099,-2.21,-2.2102,0,0,0,0,0,0,0,0,0,0,0,0,0,-2.1898,-2.19,-2.199,-2.199,-2.1991,-2.2041,-2.2042,-2.2042,-2.205,-2.205,-2.2049,-2.2049,-2.2098,-2.21,-2.2102,0,0,0,0,0,0,0,0,0,0,0,0,0,-2.1942,-2.19,-2.199,-2.2001,-2.2003,-2.2041,-2.2042,-2.2043,-2.205,-2.205,-2.2049,-2.2048,-2.2097,-2.21,-2.2103,-2.2132,0,0,-2.2111,-2.2112,0,0,0,0,0,0,0,0,-2.194,-2.1946,-2.1999,-2.2,-2.2002,-2.2039,-2.2028,-2.2072,-2.2051,-2.2032,-2.2049,-2.2048,-2.2079,-2.2083,-2.2094,-2.2134,-2.2137,-2.2111,-2.2112,-2.2113,-2.2114,0,0,0,0,0,0,0,-2.1937,-2.1944,-2.201,-2.2,-2.2002,-2.2003,-2.2009,-2.2036,-2.2059,-2.2034,-2.2034,-2.2041,-2.208,-2.2092,-2.2095,-2.2137,-2.2111,-2.2113,-2.2115,-2.2116,-2.2207,-2.2207,0,0,0,0,0,0,-2.1932,-2.1941,-2.2008,-2.2012,-2.1969,-2.2006,-2.2012,-2.2028,-2.2058,-2.2063,-2.2041,-2.2041,-2.2087,-2.2092,-2.2097,-2.2135,-2.2113,-2.2116,-2.2117,-2.2206,-2.2207,-2.2208,0,0,0,0,0,0,-2.193,-2.1938,-2.2006,-2.1977,-2.1985,-2.2008,-2.2025,-2.2029,-2.2041,-2.2064,-2.2068,-2.2049,-2.2087,-2.2093,-2.2124,-2.2137,-2.2117,-2.2119,-2.2205,-2.2206,-2.2207,-2.2211,0,0,0,0,0,0,-2.1927,-2.1937,-2.1948,-2.1977,-2.1987,-2.2033,-2.2026,-2.203,-2.2045,-2.2046,-2.2072,-2.2076,-2.2087,-2.212,-2.2127,-2.214,-2.2122,-2.2204,-2.2205,-2.2207,-2.2209,-2.2212,-2.2214,0,0,0,0,0,-2.1924,-2.1946,-2.1949,-2.1957,-2.2002,-2.2033,-2.2039,-2.2052,-2.2046,-2.2058,-2.2074,-2.2075,-2.2135,-2.2123,-2.2131,-2.2145,-2.2203,-2.2205,-2.2207,-2.2208,-2.2211,-2.2214,0,0,0,0,0,0,-2.1917,-2.195,-2.1953,-2.1986,-2.2007,-2.2035,-2.205,-2.2054,-2.2076,-2.2075,-2.209,-2.2096,-2.2126,-2.2138,-2.2125,-2.2176,-2.2168,-2.2172,-2.2167,-2.217,-2.2172,-2.2169,-2.2124,0,0,0,0,0,-2.192,-2.1944,-2.197,-2.1996,-2.2007,-2.2027,-2.2041,-2.2049,-2.2071,-2.208,-2.2097,-2.2118,-2.2141,-2.2156,-2.2179,-2.2211,-2.2218,-2.2225,-2.2227,-2.2229,-2.2232,-2.2252,-2.2256,-2.2214,-2.2214,-2.2214,0,0,-2.1925,-2.1946,-2.196,-2.1996,-2.2013,-2.2037,-2.2034,-2.2059,-2.2077,-2.2083,-2.2114,-2.2127,-2.2151,-2.2184,-2.2199,-2.2195,-2.2245,-2.2232,-2.2233,-2.2235,-2.2254,-2.2258,-2.2262,-2.2215,-2.2215,-2.2215,0,0,-2.1947,-2.1965,-2.1989,-2.2007,-2.2034,-2.2048,-2.2054,-2.2081,-2.2091,-2.2122,-2.2128,-2.2149,-2.2189,-2.2207,-2.2221,-2.2252,-2.2255,-2.2259,-2.227,-2.229,-2.2293,-2.2296,-2.2308,-2.2312,-2.2262,-2.2262,-2.2262,0,-2.195,-2.1987,-2.2001,-2.2027,-2.2043,-2.2052,-2.2077,-2.2093,-2.2126,-2.2137,-2.2132,-2.2184,-2.2201,-2.2238,-2.2246,-2.2257,-2.2265,-2.2256,-2.2291,-2.2295,-2.2298,-2.231,-2.2314,-2.2262,-2.2262,-2.2262,-2.2262,0,-2.1989,-2.2015,-2.2031,-2.2065,-2.2083,-2.2107,-2.2126,-2.2143,-2.215,-2.2164,-2.2196,-2.2217,-2.2245,-2.2254,-2.2261,-2.2293,-2.229,-2.2289,-2.2281,-2.2302,-2.2313,-2.2318,-2.2263,-2.2262,-2.2262,-2.2262,0,0,-2.2007,-2.205,-2.2056,-2.2072,-2.2103,-2.2123,-2.2149,-2.2178,-2.2192,-2.2215,-2.2237,-2.2272,-2.2271,-2.2287,-2.2296,-2.2313,-2.2338,-2.2309,-2.231,-2.2315,-2.2377,-2.2378,-2.2383,-2.234,-2.2341,-2.2342,-2.2375,0,-2.2034,-2.2081,-2.2096,-2.2136,-2.216,-2.217,-2.2193,-2.2214,-2.2228,-2.2251,-2.2266,-2.2291,-2.2288,-2.2298,-2.2315,-2.2331,-2.2351,-2.2329,-2.2362,-2.2363,-2.2356,-2.2389,-2.239,-2.2421,-2.238,-2.238,-2.2381,0,-2.207,-2.2095,-2.2138,-2.2168,-2.2179,-2.2199,-2.2228,-2.225,-2.2275,-2.2284,-2.2303,-2.2311,-2.2339,-2.233,-2.2369,-2.2354,-2.2369,-2.2379,-2.238,-2.2384,-2.2373,-2.2395,-2.243,-2.2435,-2.2388,-2.2387,-2.2387,0,-2.2081,-2.2125,-2.2157,-2.217,-2.2206,-2.222,-2.2235,-2.226,-2.2277,-2.2302,-2.2314,-2.2341,-2.2356,-2.2377,-2.2392,-2.2384,-2.2431,-2.2422,-2.2439,-2.2439,-2.2449,-2.2448,-2.2488,-2.2457,-2.2457,-2.2457,-2.2456,0,-2.2109,-2.2134,-2.2162,-2.2182,-2.2212,-2.2229,-2.2258,-2.2273,-2.2296,-2.2319,-2.2328,-2.2349,-2.2368,-2.2392,-2.2404,-2.2436,-2.2442,-2.245,-2.2453,-2.245,-2.2449,-2.246,-2.2458,-2.2458,-2.2458,-2.2457,-2.2457,0,-2.2125,-2.2144,-2.218,-2.2212,-2.2221,-2.2241,-2.2268,-2.2288,-2.2303,-2.2332,-2.234,-2.2364,-2.2392,-2.241,-2.2446,-2.2454,-2.2489,-2.2491,-2.2481,-2.2483,-2.2499,-2.2498,-2.2548,-2.2556,-2.2519,-2.2519,-2.2519,0,-2.2142,-2.2162,-2.2197,-2.2214,-2.223,-2.2256,-2.2275,-2.2293,-2.2311,-2.2343,-2.2359,-2.2389,-2.2413,-2.2459,-2.2479,-2.2507,-2.251,-2.2526,-2.2514,-2.2511,-2.2512,-2.2511,-2.2514,-2.2528,-2.2528,-2.2529,-2.2529,0,-2.217,-2.2179,-2.2205,-2.2236,-2.2258,-2.2282,-2.2306,-2.2319,-2.2341,-2.2361,-2.2392,-2.2411,-2.245,-2.2479,-2.251,-2.2525,-2.2531,-2.2533,-2.2538,-2.2535,-2.2529,-2.2534,-2.2487,-2.2531,-2.2531,-2.2531,-2.2531,-2.2531,-2.2188,-2.2207,-2.2236,-2.2265,-2.2286,-2.2309,-2.2329,-2.2348,-2.2374,-2.2407,-2.2416,-2.2449,-2.2475,-2.2517,-2.2533,-2.2559,-2.2556,-2.2564,-2.2566,-2.2568,-2.2569,-2.2525,-2.2564,-2.2564,-2.2564,-2.2564,-2.2564,0,-2.2217,-2.2237,-2.2264,-2.2299,-2.2322,-2.2327,-2.2354,-2.2373,-2.2402,-2.2427,-2.2452,-2.2488,-2.2517,-2.2541,-2.2571,-2.2587,-2.2591,-2.2595,-2.2594,-2.2598,-2.2569,-2.2562,-2.2592,-2.2592,-2.2592,-2.2592,-2.2592,-2.2591,-2.2236,-2.227,-2.2283,-2.2327,-2.2346,-2.2379,-2.2395,-2.2416,-2.2436,-2.2477,-2.2502,-2.2517,-2.2542,-2.2575,-2.2602,-2.2608,-2.2619,-2.2623,-2.263,-2.2603,-2.26,-2.2597,-2.259,-2.2625,-2.2625,-2.2657,-2.2657,-2.2657]}]]